Notices

What's New in latest Release from April 7th, 2021:

- Updated Glossary, including Speed of Maximum Gust, and Total Hourly Precipitation

- Updated national and regional climate services offices contacts and prices information

- Addition of station inventory lists for 1981-2010, 1971-2000, and 1961-1990 Normals.

If you haven't already, please take our survey and provide feedback about our website: https://eccc.sondage-survey.ca/f/LanguageSelection.aspx?s=442ca660-fcf1-47c0-95a9-59707d6fd709

Hourly Data Report for May 02, 2003

TORONTO CITY
ONTARIO

43°40'00.000" N
79°24'00.000" W
112.50 m
6158355
71508
XTO

Download Data

Hourly Data (May 2003)
Hourly Data Report for May 2, 2003
TIME
LST
Temp Definition
°C
Dew Point Definition
°C
Rel Hum Definition
%
Precip. Amount Definition
mm

Wind Dir Definition
10's deg

Wind Spd Definition
km/h
Visibility Definition
km
Stn Press Definition
kPa
Hmdx Definition


Wind Chill Definition


Weather Definition


00:00 12.0 9.6 85   LegendMM LegendMM LegendMM 99.75     LegendNANA
01:00 11.6 9.5 87   LegendMM LegendMM LegendMM 99.72     LegendNANA
02:00 9.8 8.1 89   LegendMM LegendMM LegendMM 99.80     LegendNANA
03:00 9.0 8.4 96   LegendMM LegendMM LegendMM 99.74     LegendNANA
04:00 9.9 9.5 97   LegendMM LegendMM LegendMM 99.64     LegendNANA
05:00 9.9 9.1 95   LegendMM LegendMM LegendMM 99.65     LegendNANA
06:00 9.9 9.0 94   LegendMM LegendMM LegendMM 99.85     LegendNANA
07:00 10.1 9.2 94   LegendMM LegendMM LegendMM 99.90     LegendNANA
08:00 10.4 8.7 89   LegendMM LegendMM LegendMM 99.95     LegendNANA
09:00 11.4 8.3 81   LegendMM LegendMM LegendMM 100.00     LegendNANA
10:00 11.6 7.5 76   LegendMM LegendMM LegendMM 100.07     LegendNANA
11:00 12.0 7.3 73   LegendMM LegendMM LegendMM 100.15     LegendNANA
12:00 11.9 7.0 72   LegendMM LegendMM LegendMM 100.16     LegendNANA
13:00 11.6 7.9 78   LegendMM LegendMM LegendMM 100.17     LegendNANA
14:00 13.2 8.1 71   LegendMM LegendMM LegendMM 100.17     LegendNANA
15:00 11.8 7.5 75   LegendMM LegendMM LegendMM 100.15     LegendNANA
16:00 11.7 6.2 69   LegendMM LegendMM LegendMM 100.15     LegendNANA
17:00 11.4 6.5 72   LegendMM LegendMM LegendMM 100.18     LegendNANA
18:00 11.6 6.7 72   LegendMM LegendMM LegendMM 100.20     LegendNANA
19:00 10.9 6.5 74   LegendMM LegendMM LegendMM 100.27     LegendNANA
20:00 10.8 6.6 75   LegendMM LegendMM LegendMM 100.31     LegendNANA
21:00 10.5 1.1 52   LegendMM LegendMM LegendMM 100.32     LegendNANA
22:00 9.9 -1.0 47   LegendMM LegendMM LegendMM 100.34     LegendNANA
23:00 9.4 -0.3 51   LegendMM LegendMM LegendMM 100.42     LegendNANA

Notes on Data Quality.

Legend

  • E = Estimated
  • M = Missing
  • NA = Not Available*
  • [empty] = Indicates an unobserved value
Date modified: